This is the latest recevied weather packets stored in our database for station/object NR0A-4. If no packets are shown the sender has not sent any weather packets the latest 10 day(s).
| Time | Temp. | Humidity | Pressure | Rain* | Wind** | Luminosity | Snow |
|---|---|---|---|---|---|---|---|
| 1788471004 | 33.33° C | 53% | 1008 hPa | 0 mm | - | 515 W/m² | - |
| 1788470703 | 33.33° C | 54% | 1008 hPa | 0 mm | - | 527 W/m² | - |
| 1788470404 | 33.33° C | 53% | 1007.9 hPa | 0 mm | - | 540 W/m² | - |
| 1788470104 | 33.33° C | 57% | 1007.9 hPa | 0 mm | - | 550 W/m² | - |
| 1788469804 | 32.78° C | 55% | 1008 hPa | 0 mm | - | 557 W/m² | - |
| 1788469505 | 33.33° C | 55% | 1008 hPa | 0 mm | - | 571 W/m² | - |
| 1788469204 | 33.33° C | 54% | 1008.1 hPa | 0 mm | - | 584 W/m² | - |
| 1788468903 | 33.33° C | 55% | 1008.1 hPa | 0 mm | - | 592 W/m² | - |
| 1788468604 | 32.78° C | 54% | 1008 hPa | 0 mm | - | 606 W/m² | - |
| 1788468303 | 32.78° C | 54% | 1008 hPa | 0 mm | - | 617 W/m² | - |
| 1788468004 | 33.33° C | 54% | 1008.1 hPa | 0 mm | - | 622 W/m² | - |
| 1788467704 | 33.33° C | 54% | 1008.2 hPa | 0 mm | - | 635 W/m² | - |
| 1788467404 | 33.33° C | 53% | 1008.1 hPa | 0 mm | - | 392 W/m² | - |
| 1788467104 | 33.33° C | 54% | 1008.1 hPa | 0 mm | - | 659 W/m² | - |
| 1788466804 | 33.33° C | 55% | 1008.2 hPa | 0 mm | - | 664 W/m² | - |
| 1788466504 | 33.33° C | 53% | 1008.3 hPa | 0 mm | - | 691 W/m² | - |
| 1788466205 | 33.33° C | 54% | 1008.3 hPa | 0 mm | - | 631 W/m² | - |
| 1788465904 | 33.33° C | 54% | 1008.4 hPa | 0 mm | - | 689 W/m² | - |
| 1788465619 | 33.33° C | 54% | 1008.3 hPa | 0 mm | - | 691 W/m² | - |
| 1788465304 | 33.33° C | 55% | 1008.3 hPa | 0 mm | - | 694 W/m² | - |
| 1788465004 | 33.33° C | 54% | 1008.4 hPa | 0 mm | - | 698 W/m² | - |
| 1788464704 | 33.33° C | 54% | 1008.5 hPa | 0 mm | - | 703 W/m² | - |
| 1788464404 | 33.33° C | 54% | 1008.4 hPa | 0 mm | - | 710 W/m² | - |
| 1788464104 | 32.78° C | 54% | 1008.5 hPa | 0 mm | - | 714 W/m² | - |
| 1788463804 | 32.78° C | 56% | 1008.4 hPa | 0 mm | - | 721 W/m² | - |
* Rain latest hour (hover to see other rain measurements)
** Current wind speed in m/s (hover to see current wind gust speed)